sat.trackr.live / text

‹ back to catalog

STARLINK-11546 [DTC]

NORAD 62835 · 2025-019G

PAYLOAD ACTIVE UNKNOWN

§ Identity

Operator
Country
US
Launch date
2025-01-27
Launch site
AFETR
Launch vehicle
Mass (kg)
RCS (m²)

Purposes: comms

External: N2YO · Heavens-Above · Gunter

§ Orbital elements

Epoch: 2026-09-21T07:51:49.504320Z

Period
91.67 min
Inclination
42.9990°
Eccentricity
0.0000768
Mean motion
15.70855974 rev/d
Perigee alt
355.9 km
Apogee alt
357.0 km
Semi-major
6,734.6 km
B*
8.4668e-4
RAAN
207.2688°
Arg perigee
340.1615°
Mean anomaly
19.9223°
Rev number
9,464

§ Raw data

STARLINK-11546 [DTC]1 62835U 25019G   26264.32765630  .00109709  00000+0  84668-3 0  99932 62835  42.9990 207.2688 0000768 340.1615  19.9223 15.70855974 94643

JSON: /api/v1/satellites/62835 · /tle

For live sub-satellite position, see the globe view (requires WebGL).

§ Visibility from observer

Set your observer location to see the next 7 days of passes ≥ 10°. The values pass through the URL so the page stays shareable.

No JS? Fill the form by hand. The geolocation button needs JavaScript.